Location: Caltech
(34.1382°N, 118.1253°W)
Time: 21:40:28
(UTC-07:00)

Iridium 14 - Visible Passes

Search period start: 26 April 2018 00:00
Search period end: 06 May 2018 00:00
Orbit: 776 x 779 km, 86.4° (Epoch: 26 April)

Date Brightness Start Highest point End Pass type
(mag) Time Alt. Az. Time Alt. Az. Time Alt. Az.
26 Apr 8.4 03:28:04 10° NE 03:31:46 19° E 03:35:27 10° SE visible
26 Apr 6.5 05:07:46 10° NNW 05:12:34 38° W 05:17:21 10° SSW visible
27 Apr 5.9 04:33:57 10° N 04:39:10 76° W 04:44:22 10° S visible
28 Apr 6.6 04:00:31 10° N 04:05:39 55° E 04:10:21 12° SSE visible
29 Apr 7.8 03:27:31 10° NNE 03:32:01 29° E 03:36:13 11° SE visible
29 Apr 7.1 05:08:19 10° NNW 05:12:33 26° W 05:16:38 11° SW visible
30 Apr 8.6 02:55:19 10° NE 02:58:15 15° ENE 03:01:10 10° ESE visible
30 Apr 6.2 04:34:12 10° NNW 04:39:13 50° W 04:42:35 20° SSW visible
01 May 6.0 04:00:32 10° N 04:05:46 84° E 04:08:37 28° S visible
02 May 7.0 03:27:15 10° NNE 03:32:12 42° E 03:34:41 26° SE visible
02 May 7.5 05:09:09 10° NW 05:12:30 18° W 05:15:07 12° WSW visible
03 May 8.1 02:54:29 10° NNE 02:58:31 22° E 03:00:48 17° ESE visible
03 May 6.7 04:34:36 10° NNW 04:39:14 33° W 04:41:15 25° SW visible
04 May 8.7 02:23:09 10° ENE 02:24:42 11° ENE 02:26:15 10° E visible
04 May 6.0 04:00:41 10° N 04:05:51 66° W 04:07:24 44° SSW visible
05 May 6.3 03:27:10 10° N 03:32:22 64° E 03:33:37 48° SE visible
05 May 7.9 05:10:47 10° WNW 05:12:25 11° WNW 05:14:01 10° W visible
